STARLINK-1269, 45197

Orbit data source: Space-Track

STARLINK-1269, 45197 is a payload satellite owned by SpaceX/Seattle (US) in LEO that was launched on Mon, 17 Feb 2020 UTC via an FALCON 9 launch vehicle from the Air Force Eastern Test Range (AFETR). Payload-class satellites include a variety of spacecraft equipped with specific instruments for various scientific and technological missions. These include communications satellites like Starlink; space stations such as the ISS; scientific satellites like the Hubble; Earth observation satellites from companies like Planet Labs, Umbra, and HawkEye 360; GPS; miniature CubeSats for education and research; and military/defense satellites.

Loading next visibility...
Identifier
45197, 2020-012V
Orbit
LEO
Country
Flag of USUS
Related business
Manufacturer
SpaceX/Seattle
Mission
Partially operational Commercial Communications
Bus & Motor
STARLINK, Unknown motor
Mass
260 kg wet, ~248 kg dry
Launch date (UTC)
2020-02-17 (7 years ago)
Launch vehicle
FALCON 9
Launch site
Air Force Eastern Test Range (AFETR)
Object type
Payload
Rocket body
Debris
Shape & HBR
Box + 1 Pan, 10.1 m
Radar Cross Section
13.562 m², Large (>1 m²)

Expand to show TLE details & history
Last TLE update: 1 day ago

TLE from 1 day ago
0 STARLINK-1269
1 45197U 20012V   26253.29131641  .00040093  00000-0  91441-3 0  9994
2 45197  53.1511 255.2882 0002853  33.9078 326.2110 15.42533814363276
Epoch: 2026-09-10T06:59Z
TLE epoch observation values (Epoch: 2026-09-10T06:59:29.737Z)
Latitude
-0.00004°
Longitude
161.08314°
Altitude
437.922 km
Speed
7.651 km/s
True Right ascension
17h 01m 09s
True Declination
0° 00' 00"
Sunlit
Object was in daylight at epoch
Visualization orbit readout
Latitude
Unknown
Longitude
Unknown
Altitude
Unknown
Speed
Unknown
Apparent Right ascension
Unknown
Apparent Declination
Unknown
Sunlit
N/A
Visualization observer readout
Local Sidereal Time
00:10:57
Azimuth
Unknown
Elevation
Unknown
Doppler factor
Unknown
Orbital elements
Apogee altitude
440.838 km
Perigee altitude
436.948 km
Semi-major axis
6,817.03 km
Eccentricity
0.00029
Inclination
53.1511°
RAAN
255.2882°
Arg. of periapsis
33.9078°
True anomaly
326.19281°
Mean anomaly
326.211°
Eccentric anomaly
326.20191°
Mean motion
3.85612 °/min
Orbital period
93.36 mins
BSTAR
0.00091441
Loading maneuver chart data...
Computing Atmospheric mass density...

Documentation

Showing up to 5 results
|